• In Germany
  • List of Countries
  • For 7 days
  • Water Temperature
  • Satellite Maps
  • Weather Map
  • Weather Widgets
  • user-avatar
    Login

    Hourly Weather Pointe-Noire

    Today, 20 August, Sunday

    Time Temperature Precipitation Wind Pressure Humidity
    00:00 +24°C° 0.2 mm 1 mps 722 mmHg 98%
    01:00 +24°C° 0 mm 1 mps 721 mmHg 99%
    02:00 +23°C° 0.1 mm 1 mps 721 mmHg 99%
    03:00 +23°C° 0.1 mm 1 mps 721 mmHg 99%
    04:00 +23°C° 0.1 mm 1 mps 721 mmHg 98%
    05:00 +23°C° 0 mm 1 mps 722 mmHg 98%
    06:00 +23°C° 0 mm 1 mps 722 mmHg 98%
    07:00 +24°C° 0 mm 1 mps 722 mmHg 98%
    08:00 +25°C° 0.1 mm 1 mps 723 mmHg 92%
    09:00 +26°C° 0.1 mm 1 mps 723 mmHg 87%
    10:00 +27°C° 0.1 mm 1 mps 723 mmHg 81%
    11:00 +29°C° 0.1 mm 1 mps 723 mmHg 74%
    12:00 +30°C° 0.1 mm 1 mps 722 mmHg 67%
    13:00 +32°C° 0.1 mm 1 mps 721 mmHg 60%
    14:00 +31°C° 0.5 mm 1 mps 721 mmHg 67%
    15:00 +30°C° 0.5 mm 1 mps 720 mmHg 74%
    16:00 +29°C° 0.5 mm 1 mps 719 mmHg 81%
    17:00 +28°C° 0.6 mm 1 mps 720 mmHg 86%
    18:00 +26°C° 0.6 mm 1 mps 720 mmHg 92%
    19:00 +25°C° 0.6 mm 1 mps 721 mmHg 97%
    20:00 +24°C° 0.2 mm 1 mps 721 mmHg 97%
    21:00 +24°C° 0.2 mm 2 mps 722 mmHg 98%
    22:00 +24°C° 0.2 mm 2 mps 723 mmHg 98%
    23:00 +24°C° 0.1 mm 2 mps 722 mmHg 98%

    Tomorrow, 21 August, Monday

    Time Temperature Precipitation Wind Pressure Humidity
    00:00 +24°C° 0.1 mm 2 mps 722 mmHg 98%
    01:00 +23°C° 0.1 mm 2 mps 722 mmHg 98%
    02:00 +23°C° 0.6 mm 2 mps 722 mmHg 98%
    03:00 +23°C° 0.6 mm 2 mps 722 mmHg 98%
    04:00 +23°C° 0.6 mm 1 mps 721 mmHg 98%
    05:00 +23°C° 0.5 mm 1 mps 722 mmHg 98%
    06:00 +23°C° 0.5 mm 1 mps 722 mmHg 98%
    07:00 +23°C° 0.5 mm 1 mps 722 mmHg 98%
    08:00 +24°C° 0.1 mm 2 mps 722 mmHg 96%
    09:00 +24°C° 0.1 mm 2 mps 723 mmHg 93%
    10:00 +25°C° 0.1 mm 2 mps 723 mmHg 91%
    11:00 +26°C° 0.2 mm 2 mps 723 mmHg 85%
    12:00 +27°C° 0.2 mm 2 mps 722 mmHg 80%
    13:00 +28°C° 0.2 mm 2 mps 722 mmHg 74%
    14:00 +28°C° 0.9 mm 2 mps 721 mmHg 80%
    15:00 +27°C° 0.9 mm 2 mps 720 mmHg 86%
    16:00 +26°C° 0.9 mm 1 mps 720 mmHg 92%
    17:00 +25°C° 0.7 mm 1 mps 720 mmHg 94%
    18:00 +25°C° 0.7 mm 1 mps 720 mmHg 96%
    19:00 +24°C° 0.7 mm 1 mps 721 mmHg 97%
    20:00 +23°C° 0.1 mm 1 mps 721 mmHg 98%
    21:00 +23°C° 0.1 mm 1 mps 722 mmHg 98%
    22:00 +23°C° 0.1 mm 1 mps 723 mmHg 98%
    23:00 +23°C° 0.1 mm 1 mps 722 mmHg 98%

    Day after tomorrow, 22 August, Tuesday

    Time Temperature Precipitation Wind Pressure Humidity
    00:00 +23°C° 0.1 mm 1 mps 722 mmHg 98%
    01:00 +23°C° 0.1 mm 1 mps 722 mmHg 99%
    02:00 +23°C° 0.1 mm 1 mps 721 mmHg 98%
    03:00 +23°C° 0.1 mm 1 mps 721 mmHg 98%
    04:00 +23°C° 0.1 mm 1 mps 721 mmHg 98%
    05:00 +23°C° 0 mm 1 mps 721 mmHg 98%
    06:00 +23°C° 0 mm 1 mps 722 mmHg 98%
    07:00 +23°C° 0 mm 1 mps 722 mmHg 98%
    08:00 +24°C° 0.1 mm 1 mps 722 mmHg 95%
    09:00 +24°C° 0.1 mm 1 mps 723 mmHg 92%
    10:00 +25°C° 0.1 mm 1 mps 723 mmHg 89%
    11:00 +26°C° 0.2 mm 1 mps 722 mmHg 85%
    12:00 +27°C° 0.2 mm 1 mps 722 mmHg 80%
    13:00 +28°C° 0.2 mm 2 mps 721 mmHg 76%
    14:00 +27°C° 0.3 mm 2 mps 721 mmHg 79%
    15:00 +27°C° 0.3 mm 2 mps 720 mmHg 82%
    16:00 +27°C° 0.3 mm 2 mps 719 mmHg 85%
    17:00 +25°C° 0.3 mm 2 mps 720 mmHg 89%
    18:00 +24°C° 0.3 mm 2 mps 720 mmHg 93%
    19:00 +23°C° 0.3 mm 1 mps 721 mmHg 97%
    20:00 +23°C° 0.1 mm 1 mps 721 mmHg 97%
    21:00 +23°C° 0.1 mm 1 mps 722 mmHg 97%
    22:00 +23°C° 0.1 mm 1 mps 722 mmHg 97%
    23:00 +23°C° 0 mm 1 mps 722 mmHg 97%

    23 August, Wednesday

    Time Temperature Precipitation Wind Pressure Humidity
    00:00 +23°C° 0 mm 1 mps 722 mmHg 97%
    01:00 +23°C° 0 mm 1 mps 721 mmHg 98%
    02:00 +22°C° 0 mm 1 mps 721 mmHg 98%
    03:00 +22°C° 0 mm 1 mps 721 mmHg 98%
    04:00 +22°C° 0 mm 1 mps 720 mmHg 98%
    05:00 +22°C° 0 mm 1 mps 721 mmHg 98%
    06:00 +22°C° 0 mm 1 mps 721 mmHg 97%
    07:00 +20°C° 0 mm 0 mps 722 mmHg 97%
    08:00 +24°C° 0 mm 1 mps 722 mmHg 91%
    09:00 +25°C° 0 mm 1 mps 722 mmHg 84%
    10:00 +26°C° 0 mm 1 mps 723 mmHg 78%
    11:00 +27°C° 0.2 mm 1 mps 722 mmHg 75%
    12:00 +28°C° 0.2 mm 1 mps 721 mmHg 72%
    13:00 +29°C° 0.2 mm 1 mps 721 mmHg 69%
    14:00 +28°C° 0.9 mm 1 mps 720 mmHg 76%
    15:00 +26°C° 0.9 mm 0 mps 720 mmHg 83%
    16:00 +25°C° 0.9 mm 0 mps 720 mmHg 90%
    17:00 +24°C° 1.2 mm 0 mps 720 mmHg 92%
    18:00 +23°C° 1.2 mm 0 mps 720 mmHg 94%
    19:00 +22°C° 1.2 mm 0 mps 721 mmHg 97%
    20:00 +24°C° 0.9 mm 1 mps 721 mmHg 97%
    21:00 +23°C° 0.9 mm 1 mps 722 mmHg 97%
    22:00 +23°C° 0.9 mm 1 mps 722 mmHg 98%
    23:00 +23°C° 0.8 mm 1 mps 722 mmHg 98%

    24 August, Thursday

    Time Temperature Precipitation Wind Pressure Humidity
    00:00 +23°C° 0.8 mm 1 mps 721 mmHg 98%
    01:00 +23°C° 0.8 mm 1 mps 721 mmHg 99%
    02:00 +23°C° 0.7 mm 1 mps 721 mmHg 99%
    03:00 +22°C° 0.7 mm 1 mps 721 mmHg 99%
    04:00 +22°C° 0.7 mm 1 mps 720 mmHg 99%
    05:00 +22°C° 0.4 mm 1 mps 721 mmHg 99%
    06:00 +23°C° 0.4 mm 1 mps 721 mmHg 99%
    07:00 +23°C° 0.4 mm 1 mps 722 mmHg 98%
    08:00 +24°C° 0.2 mm 1 mps 722 mmHg 96%
    09:00 +24°C° 0.2 mm 1 mps 722 mmHg 94%
    10:00 +25°C° 0.2 mm 1 mps 723 mmHg 91%
    11:00 +25°C° 0.7 mm 1 mps 722 mmHg 91%
    12:00 +26°C° 0.7 mm 1 mps 721 mmHg 90%
    13:00 +26°C° 0.7 mm 1 mps 721 mmHg 90%
    14:00 +26°C° 1 mm 1 mps 720 mmHg 92%
    15:00 +25°C° 1 mm 1 mps 720 mmHg 93%
    16:00 +25°C° 1 mm 1 mps 719 mmHg 95%
    17:00 +24°C° 1.3 mm 1 mps 720 mmHg 96%
    18:00 +24°C° 1.3 mm 1 mps 720 mmHg 97%
    19:00 +23°C° 1.3 mm 1 mps 721 mmHg 97%
    20:00 +23°C° 0.5 mm 1 mps 721 mmHg 98%
    21:00 +23°C° 0.5 mm 1 mps 721 mmHg 98%
    22:00 +23°C° 0.5 mm 1 mps 722 mmHg 98%
    23:00 +23°C° 0.2 mm 1 mps 722 mmHg 98%

    25 August, Friday

    Time Temperature Precipitation Wind Pressure Humidity
    00:00 +23°C° 0.2 mm 1 mps 721 mmHg 98%
    01:00 +23°C° 0.2 mm 1 mps 721 mmHg 99%
    02:00 +23°C° 0.3 mm 1 mps 721 mmHg 99%
    03:00 +22°C° 0.3 mm 1 mps 721 mmHg 99%
    04:00 +22°C° 0.3 mm 1 mps 721 mmHg 99%
    05:00 +22°C° 0.6 mm 1 mps 721 mmHg 99%
    06:00 +22°C° 0.6 mm 1 mps 721 mmHg 99%
    07:00 +22°C° 0.6 mm 1 mps 722 mmHg 99%
    08:00 +23°C° 0.4 mm 1 mps 722 mmHg 97%
    09:00 +24°C° 0.4 mm 1 mps 722 mmHg 95%
    10:00 +24°C° 0.4 mm 1 mps 723 mmHg 94%
    11:00 +25°C° 0.4 mm 1 mps 722 mmHg 92%
    12:00 +25°C° 0.4 mm 1 mps 721 mmHg 91%
    13:00 +26°C° 0.4 mm 1 mps 721 mmHg 90%
    14:00 +26°C° 0.5 mm 1 mps 720 mmHg 91%
    15:00 +26°C° 0.5 mm 1 mps 720 mmHg 92%
    16:00 +26°C° 0.5 mm 1 mps 720 mmHg 92%
    17:00 +25°C° 0.4 mm 1 mps 720 mmHg 94%
    18:00 +24°C° 0.4 mm 1 mps 720 mmHg 96%
    19:00 +23°C° 0.4 mm 1 mps 721 mmHg 98%
    20:00 +23°C° 0.3 mm 1 mps 721 mmHg 98%
    21:00 +23°C° 0.3 mm 1 mps 721 mmHg 98%
    22:00 +23°C° 0.3 mm 1 mps 722 mmHg 99%
    23:00 +22°C° 0.8 mm 1 mps 722 mmHg 99%
    Show more